Regional Weather Roundup
Issued by NWS

Home | Current Version | Previous Version | Text Only | Print | Product List | Glossary Off
Versions: 1 2 3 4 5 6 7 8 9 10 11 12 13 14 15 16 17 18 19 20 21 22 23 24 25 26 27 28 29 30 31 32 33 34 35 36 37 38 39 40 41 42 43 44 45 46 47 48 49 50

000
ASUS45 KABQ 011701
RWRNM
NEW MEXICO REGIONAL WEATHER ROUNDUP
NATIONAL WEATHER SERVICE ALBUQUERQUE NM
1100 AM MDT TUE SEP 01 2015

NOTE: "FAIR" MEANS FEW OR NO CLOUDS BELOW 12,000 FEET AGL WITH NO
       SIGNIFICANT WEATHER OR OBSTRUCTIONS TO VISION.

      THIS PRODUCT IS RELEASED AS TWO VERSIONS.  ONE VERSION NEAR
      THE TOP OF THE HOUR CONTAINING PRELIMINARY DATA FROM ALBUQUERQUE
      AND OTHER STATIONS.  A FINAL VERSION WITH ADDITIONAL DATA IS
      ISSUED ABOUT 10 MINUTES AFTER THE HOUR.

NMZ501-503-504-510>518-011800-
NORTHWEST PLATEAU/NORTHCENTRAL MOUNTAINS

CITY           SKY/WX    TMP DP  RH WIND       PRES   REMARKS
FARMINGTON     SUNNY     77  47  34 SE6       30.22S
SANTA FE       MOSUNNY   81  44  27 VRB7      30.26S
TAOS           MOSUNNY   72  43  35 W3        30.34S
ANGEL FIRE     FAIR      68  47  47 S6        30.39F

$$
NMZ402-403-502-505>509-011800-
WESTCENTRAL MOUNTAINS/SOUTHWEST MOUNTAINS

CITY           SKY/WX    TMP DP  RH WIND       PRES   REMARKS
GALLUP         CLOUDY    68  52  56 NE7       30.30S
GRANTS         CLOUDY    67  51  57 N7        30.32F
SILVER CITY      N/A     79  50  36 W7        30.23S

$$
NMZ407-409-411-412-011800-
SOUTHERN DESERTS

CITY           SKY/WX    TMP DP  RH WIND       PRES   REMARKS
DEMING         MOSUNNY   80  55  42 VRB5      30.14S
HOLLOMAN AFB   MOSUNNY   88  48  24 CALM      30.08S
ALAMOGORDO     MOSUNNY   84  46  26 CALM      30.11S
T OR C         SUNNY     83  51  33 MISG      30.15S

$$
NMZ519>523-011800-
CENTRAL VALLEYS/CENTRAL HIGHLANDS

CITY           SKY/WX    TMP DP  RH WIND       PRES   REMARKS
ALBUQUERQUE    MOSUNNY   80  47  31 W3        30.22R
DOUBLE EAGLE   PTSUNNY   81  48  32 VRB7      30.25S
MORIARTY ARPT  FAIR      79  44  28 N9        30.26S
CLINES CORNERS SUNNY     77  43  29 NW10      30.29R
BELEN          FAIR      82  45  27 NW7       30.20F
SOCORRO        NOT AVBL

$$
NMZ524>526-539-540-011800-
SOUTHCENTRAL MOUNTAINS

CITY           SKY/WX    TMP DP  RH WIND       PRES   REMARKS
RUIDOSO        SUNNY     77  45  31 MISG      30.31S

$$
NMZ527>531-011800-
NORTHEAST HIGHLANDS/NORTHEAST PLAINS

CITY           SKY/WX    TMP DP  RH WIND       PRES   REMARKS
LAS VEGAS      SUNNY     77  44  30 VRB3      30.27S
RATON          MOSUNNY   79  47  32 VRB5      30.21S
CLAYTON        SUNNY     82  57  42 VRB3      30.12S

$$
NMZ532>537-011800-
EASTCENTRAL PLAINS

CITY           SKY/WX    TMP DP  RH WIND       PRES   REMARKS
TUCUMCARI      SUNNY     86  53  32 VRB7      30.08R
CANNON AFB     SUNNY     85  53  33 S18       30.12F
CLOVIS AIRPORT SUNNY     84  54  34 S18G26    30.14S

$$
NMZ028-029-538-011800-
SOUTHEAST PLAINS

CITY           SKY/WX    TMP DP  RH WIND       PRES   REMARKS
ROSWELL        SUNNY     84  55  36 S13       30.09S
ARTESIA        SUNNY     84  55  37 S16       30.09S
CARLSBAD       NOT AVBL
HOBBS          SUNNY     84  55  37 SE15G22   30.12


$$



USA.gov is the U.S. government's official web portal to all federal, state and local government web resources and services.